EA4TN Weather Reports


time (UTC)temp
C
wind
direction
speed
KPH
gust
KPH
rain 1hr
cm
rain 24hr
cm
rain mn
cm
humidity
%
barometer
mb
20260508133017 14 97 1.6 8.0 0.00 0.43 0.28 93 1011.0
20260508132017 13 271 1.6 4.8 0.00 0.56 0.28 92 1010.9
20260508131017 13 252 0.0 4.8 0.20 0.61 0.28 94 1011.1
20260508130016 12 311 0.0 4.8 0.23 0.61 0.28 94 1011.1
20260508125016 12 304 3.2 9.7 0.23 0.74 0.28 93 1011.2
20260508124016 12 7 1.6 8.0 0.23 1.45 0.28 95 1011.3
20260508123017 12 358 4.8 9.7 0.23 1.45 0.28 93 1011.2
20260508122017 12 345 3.2 6.4 0.23 1.45 0.28 91 1012.1
20260508121017 13 67 1.6 6.4 0.05 1.24 0.08 84 1011.9
20260508120017 13 335 1.6 8.0 0.03 1.22 0.05 85 1011.8
20260508115037 13 355 3.2 8.0 0.00 1.19 0.05 88 1012.0
20260508114017 13 45 4.8 9.7 0.00 1.19 0.05 88 1011.9
20260508113016 13 29 4.8 9.7 0.03 1.19 0.05 87 1012.1
20260508112017 13 32 3.2 8.0 0.05 1.19 0.05 88 1012.0
20260508111017 12 60 4.8 6.4 0.05 1.19 0.05 88 1012.0
20260508110016 12 349 3.2 6.4 0.05 1.19 0.05 88 1012.2
20260508105057 12 276 3.2 6.4 0.05 1.19 0.05 87 1012.3
20260508104017 12 349 1.6 8.0 0.05 1.19 0.05 84 1012.2
20260508103016 13 273 1.6 4.8 0.03 1.17 0.03 80 1012.4
20260508102016 13 295 1.6 4.8 0.00 1.17 0.00 78 1012.4
20260508101017 13 356 1.6 6.4 0.00 1.17 0.00 76 1012.3
20260508100017 13 50 1.6 6.4 0.00 1.17 0.00 75 1012.2
20260508095017 13 38 3.2 9.7 0.00 1.17 0.00 75 1012.1
20260508094016 13 58 1.6 8.0 0.00 1.17 0.00 75 1012.3
20260508093016 13 54 3.2 8.0 0.00 1.17 0.00 75 1012.2
20260508092017 13 353 1.6 4.8 0.00 1.17 0.00 77 1012.2
20260508091017 12 13 1.6 6.4 0.00 1.17 0.00 78 1012.3
20260508090017 12 18 1.6 6.4 0.00 1.17 0.00 80 1012.2
20260508085017 12 125 3.2 6.4 0.00 1.17 0.00 81 1012.1
20260508084016 12 137 0.0 3.2 0.00 1.17 0.00 81 1012.3
20260508083037 11 131 1.6 6.4 0.00 1.17 0.00 83 1012.2
20260508082017 11 44 4.8 8.0 0.00 1.17 0.00 84 1012.0
20260508081017 11 58 4.8 11.3 0.00 1.17 0.00 84 1011.8
20260508080017 10 53 4.8 8.0 0.00 1.17 0.00 85 1012.0
20260508075017 10 68 3.2 6.4 0.00 1.17 0.00 85 1012.1
20260508074017 10 43 1.6 6.4 0.00 1.17 0.00 86 1012.1
20260508073017 10 48 3.2 6.4 0.00 1.17 0.00 87 1012.1
20260508072017 9 48 3.2 6.4 0.00 1.17 0.00 88 1012.0
20260508071017 9 70 1.6 6.4 0.00 1.17 0.00 89 1012.0
20260508070017 8 45 4.8 9.7 0.00 1.17 0.00 90 1011.8
20260508065017 8 46 4.8 9.7 0.00 1.17 0.00 90 1011.6
20260508064017 8 47 6.4 12.9 0.00 1.17 0.00 90 1011.9
20260508063017 8 50 6.4 14.5 0.00 1.17 0.00 90 1011.8
20260508062017 8 44 6.4 12.9 0.00 1.17 0.00 90 1011.8
20260508061016 8 53 6.4 12.9 0.00 1.17 0.00 90 1011.6
20260508060017 8 50 6.4 11.3 0.00 1.17 0.00 90 1011.5
20260508055016 8 52 4.8 12.9 0.00 1.17 0.00 89 1011.6
20260508054017 8 50 6.4 11.3 0.00 1.17 0.00 89 1011.6
20260508053017 8 49 4.8 9.7 0.00 1.17 0.00 89 1011.7
20260508052017 8 50 4.8 9.7 0.00 1.17 0.00 89 1011.6
20260508051017 8 94 1.6 9.7 0.00 1.17 0.00 89 1011.3
20260508050017 8 56 3.2 8.0 0.00 1.17 0.00 89 1011.2
20260508045017 8 80 3.2 8.0 0.00 1.17 0.00 89 1011.1
20260508044017 8 67 3.2 8.0 0.00 1.17 0.00 89 1010.8
20260508043020 8 60 3.2 8.0 0.00 1.17 0.00 89 1010.8
20260508042017 8 80 4.8 6.4 0.00 1.17 0.00 89 1010.7
20260508041017 8 73 3.2 6.4 0.00 1.17 0.00 88 1010.6
20260508040017 8 69 4.8 9.7 0.00 1.17 0.00 88 1010.5
20260508035017 8 77 3.2 6.4 0.00 1.17 0.00 88 1010.5
20260508034017 8 63 3.2 8.0 0.00 1.17 0.00 88 1010.6
20260508033017 8 46 3.2 8.0 0.00 1.17 0.00 89 1010.6
20260508032017 8 49 4.8 8.0 0.00 1.17 0.00 89 1010.6
20260508031017 8 63 3.2 9.7 0.00 1.17 0.00 89 1010.8
20260508030017 8 54 3.2 9.7 0.00 1.17 0.00 89 1010.6
20260508025017 8 81 3.2 8.0 0.00 1.17 0.00 90 1010.5
20260508024017 8 94 3.2 11.3 0.00 1.17 0.00 90 1010.5
20260508023017 8 60 4.8 11.3 0.00 1.17 0.00 90 1010.5
20260508022017 8 46 8.0 14.5 0.00 1.17 0.00 89 1010.6
20260508021017 8 58 6.4 11.3 0.00 1.17 0.00 89 1010.4
20260508020017 8 57 6.4 14.5 0.00 1.17 0.00 89 1010.6
20260508015017 9 60 6.4 11.3 0.00 1.17 0.00 89 1010.7
20260508014017 9 62 4.8 11.3 0.00 1.17 0.00 89 1010.6
20260508013017 9 50 4.8 11.3 0.00 1.17 0.00 89 1010.8
20260508012015 9 48 8.0 12.9 0.00 1.17 0.00 89 1010.9
20260508011017 9 69 3.2 11.3 0.00 1.17 0.00 89 1011.6
20260508010017 9 50 6.4 12.9 0.00 1.17 0.00 89 1011.7
20260508005017 9 50 8.0 12.9 0.00 1.17 0.00 89 1011.9
20260508004037 10 47 4.8 9.7 0.00 1.17 0.00 88 1012.1
20260508003037 10 40 3.2 8.0 0.00 1.17 0.00 87 1012.2
20260508002037 10 77 3.2 6.4 0.00 1.17 0.00 86 1012.3
20260508001018 10 77 3.2 4.8 0.00 1.17 0.00 86 1012.7
20260508000017 10 78 3.2 6.4 0.00 1.17 0.00 86 1012.8
20260507235017 10 79 1.6 6.4 0.00 1.17 1.17 85 1012.7
20260507234017 10 79 1.6 4.8 0.00 1.17 1.17 86 1012.8
20260507233017 10 79 1.6 3.2 0.00 1.17 1.17 87 1012.9
20260507232016 10 79 1.6 4.8 0.00 1.17 1.17 87 1013.1
20260507231017 10 79 3.2 6.4 0.00 1.17 1.17 87 1013.1
20260507230016 10 79 1.6 3.2 0.00 1.17 1.17 87 1013.1
20260507225016 10 81 3.2 6.4 0.00 1.17 1.17 87 1013.2
20260507224016 10 98 1.6 3.2 0.00 1.17 1.17 87 1013.1
20260507223016 10 98 1.6 3.2 0.00 1.17 1.17 87 1013.1
20260507222017 10 98 1.6 4.8 0.00 1.17 1.17 88 1013.1
20260507221016 10 105 0.0 3.2 0.00 1.17 1.17 87 1013.0
20260507220016 10 0.0 0.0 0.00 1.17 1.17 87 1013.1
20260507215016 10 0.0 1.6 0.00 1.17 1.17 87 1013.0
20260507214016 10 0.0 0.0 0.00 1.17 1.17 88 1012.9
20260507213016 10 0.0 0.0 0.00 1.17 1.17 87 1012.7
20260507212017 10 0.0 0.0 0.00 1.17 1.17 86 1012.7
20260507211017 11 0.0 0.0 0.00 1.17 1.17 84 1012.4
20260507210016 11 0.0 0.0 0.00 1.17 1.17 82 1012.3
20260507205017 11 0.0 1.6 0.00 1.17 1.17 79 1012.1
20260507204017 12 105 0.0 3.2 0.00 1.17 1.17 79 1011.8
20260507203016 12 105 1.6 4.8 0.00 1.17 1.17 78 1011.7
20260507202017 12 106 0.0 3.2 0.00 1.17 1.17 78 1011.6
20260507201017 12 93 3.2 9.7 0.00 1.17 1.17 77 1011.4
20260507200016 12 108 3.2 8.0 0.00 1.17 1.17 77 1011.3
20260507195016 13 79 3.2 6.4 0.00 1.17 1.17 76 1011.2
20260507194016 13 101 1.6 3.2 0.00 1.17 1.17 75 1011.0
20260507193017 13 105 0.0 6.4 0.00 1.17 1.17 75 1010.9
20260507192017 13 115 0.0 6.4 0.00 1.17 1.17 74 1010.8
20260507191017 13 50 1.6 4.8 0.00 1.17 1.17 74 1010.8
20260507190017 14 49 3.2 4.8 0.00 1.17 1.17 73 1010.5
20260507185017 14 49 3.2 6.4 0.00 1.17 1.17 72 1010.2
20260507184016 15 49 3.2 8.0 0.00 1.17 1.17 71 1010.2
20260507183037 15 52 6.4 9.7 0.00 1.17 1.17 70 1010.0
20260507182017 15 56 3.2 8.0 0.00 1.17 1.17 66 1010.1
20260507181037 15 62 3.2 8.0 0.00 1.17 1.17 68 1010.1
20260507180017 15 57 3.2 8.0 0.00 1.17 1.17 70 1009.9
20260507175017 15 45 3.2 8.0 0.00 1.17 1.17 71 1009.8
20260507174017 15 66 3.2 8.0 0.00 1.17 1.17 70 1009.9
20260507173017 15 66 4.8 9.7 0.00 1.17 1.17 70 1009.8
20260507172016 14 62 4.8 9.7 0.00 1.17 1.17 73 1009.8
20260507171037 14 59 4.8 11.3 0.00 1.17 1.17 76 1009.8
20260507170017 13 64 6.4 12.9 0.03 1.17 1.17 79 1009.7
20260507165017 12 58 8.0 14.5 0.05 1.17 1.17 81 1009.5
20260507164016 12 77 8.0 14.5 0.05 1.17 1.17 83 1009.5
20260507163016 11 69 4.8 9.7 0.08 1.17 1.17 86 1009.4
20260507162017 10 63 6.4 12.9 0.13 1.17 1.17 87 1009.2
20260507161017 11 65 8.0 12.9 0.13 1.17 1.17 86 1009.3
20260507160018 11 99 4.8 20.9 0.10 1.14 1.14 88 1009.8
20260507155017 11 113 11.3 17.7 0.08 1.12 1.12 89 1010.3
20260507154017 11 273 3.2 9.7 0.05 1.09 1.09 93 1010.5
20260507153017 11 272 4.8 11.3 0.05 1.09 1.09 93 1010.5
20260507152017 11 336 6.4 14.5 0.00 1.04 1.04 94 1010.2
20260507151017 11 357 8.0 16.1 0.00 1.04 1.04 93 1010.0
20260507150017 11 10 8.0 17.7 0.00 1.04 1.04 93 1010.2
20260507145037 11 23 9.7 20.9 0.00 1.04 1.04 92 1010.2
20260507144017 12 39 9.7 19.3 0.00 1.04 1.04 93 1010.0
20260507143017 12 35 11.3 22.5 0.03 1.04 1.04 94 1010.1
20260507142037 12 34 11.3 20.9 0.15 1.04 1.04 94 1009.9
20260507141017 12 45 8.0 16.1 0.20 1.04 1.04 94 1009.8
20260507140017 12 49 8.0 16.1 0.23 1.04 1.04 95 1009.8
20260507135017 11 62 8.0 20.9 0.33 1.04 1.04 95 1009.7
20260507134017 10 49 14.5 20.9 1.04 1.04 1.04 95 1009.7